| time (UTC) | temp F | wind direction | speed MPH | gust MPH | rain 1hr in | rain 24hr in | rain mn in | humidity % | barometer mb |
| 20260507093014 | 44 | 229 | 0.0 | 1.0 | 0.00 | 0.00 | 0.00 | 57 | 1014.7 |
| 20260507091511 | 44 | 205 | 0.0 | 2.0 | 0.00 | 0.00 | 0.00 | 56 | 1014.9 |
| 20260507090011 | 44 | 210 | 0.0 | 2.0 | 0.00 | 0.00 | 0.00 | 56 | 1015.1 |
| 20260507084518 | 45 | 194 | 0.0 | 2.0 | 0.00 | 0.00 | 0.00 | 54 | 1015.2 |
| 20260507083018 | 45 | 152 | 2.0 | 4.0 | 0.00 | 0.00 | 0.00 | 54 | 1015.3 |
| 20260507081507 | 44 | 106 | 0.0 | 1.0 | 0.00 | 0.00 | 0.00 | 59 | 1015.5 |
| 20260507080007 | 42 | 54 | 0.0 | 0.0 | 0.00 | 0.00 | 0.00 | 65 | 1015.7 |
| 20260507074504 | 42 | 54 | 0.0 | 1.0 | 0.00 | 0.00 | 0.00 | 64 | 1015.8 |
| 20260507073003 | 40 | 59 | 0.0 | 1.0 | 0.00 | 0.00 | 0.00 | 66 | 1015.7 |
| 20260507071600 | 44 | 252 | 0.0 | 1.0 | 0.00 | 0.00 | 0.00 | 57 | 1015.8 |
| 20260507070110 | 44 | 182 | 0.0 | 1.0 | 0.00 | 0.00 | 0.00 | 58 | 1015.7 |
| 20260507064527 | 44 | 310 | 0.0 | 4.0 | 0.00 | 0.00 | 0.00 | 56 | 1015.7 |
| 20260507063027 | 45 | 206 | 0.0 | 7.0 | 0.00 | 0.00 | 0.00 | 56 | 1015.8 |
| 20260507061526 | 50 | 82 | 0.0 | 1.0 | 0.00 | 0.00 | 0.00 | 48 | 1015.9 |
| 20260507060032 | 49 | 76 | 0.0 | 1.0 | 0.00 | 0.00 | 0.00 | 50 | 1016.0 |
| 20260507054533 | 47 | 235 | 0.0 | 0.0 | 0.00 | 0.00 | 0.00 | 55 | 1016.0 |
| 20260507053020 | 47 | 235 | 0.0 | 1.0 | 0.00 | 0.00 | 0.00 | 55 | 1016.0 |
| 20260507051547 | 51 | 277 | 0.0 | 1.0 | 0.00 | 0.00 | 0.00 | 45 | 1015.8 |
| 20260507044551 | 53 | 77 | 0.0 | 1.0 | 0.00 | 0.00 | 0.00 | 44 | 1015.7 |
| 20260507043040 | 53 | 77 | 0.0 | 1.0 | 0.00 | 0.00 | 0.00 | 43 | 1015.9 |
| 20260507041539 | 54 | 106 | 0.0 | 1.0 | 0.00 | 0.00 | 0.00 | 42 | 1015.9 |
| 20260507040036 | 55 | 129 | 0.0 | 1.0 | 0.00 | 0.00 | 0.00 | 38 | 1015.8 |
| 20260507034506 | 55 | 131 | 0.0 | 4.0 | 0.00 | 0.00 | 0.00 | 37 | 1015.7 |
| 20260507033103 | 58 | 315 | 0.0 | 0.0 | 0.00 | 0.00 | 0.00 | 33 | 1015.5 |
| 20260507031532 | 59 | 315 | 0.0 | 0.0 | 0.00 | 0.00 | 0.00 | 32 | 1015.5 |
| 20260507030034 | 60 | 315 | 0.0 | 0.0 | 0.00 | 0.00 | 0.00 | 31 | 1015.4 |
| 20260507024520 | 62 | 310 | 0.0 | 5.0 | 0.00 | 0.00 | 0.00 | 29 | 1015.3 |
| 20260507023019 | 65 | 301 | 2.0 | 9.0 | 0.00 | 0.00 | 0.00 | 26 | 1015.2 |
| 20260507021531 | 67 | 295 | 5.0 | 8.0 | 0.00 | 0.00 | 0.00 | 25 | 1015.1 |
| 20260507020023 | 69 | 287 | 2.0 | 7.0 | 0.00 | 0.00 | 0.00 | 24 | 1015.1 |
| 20260507014520 | 69 | 324 | 0.0 | 9.0 | 0.00 | 0.00 | 0.00 | 26 | 1015.0 |
| 20260507013016 | 68 | 297 | 0.0 | 3.0 | 0.00 | 0.00 | 0.00 | 26 | 1015.1 |
| 20260507011519 | 68 | 314 | 4.0 | 11.0 | 0.00 | 0.00 | 0.00 | 25 | 1015.1 |
| 20260507010026 | 69 | 285 | 6.0 | 14.0 | 0.00 | 0.00 | 0.00 | 23 | 1015.0 |
| 20260507004509 | 71 | 304 | 1.0 | 7.0 | 0.00 | 0.00 | 0.00 | 24 | 1015.1 |
| 20260507003008 | 71 | 331 | 4.0 | 10.0 | 0.00 | 0.00 | 0.00 | 24 | 1015.2 |
| 20260507001507 | 71 | 252 | 4.0 | 11.0 | 0.00 | 0.00 | 0.00 | 24 | 1015.2 |
| 20260507000006 | 70 | 271 | 3.0 | 8.0 | 0.00 | 0.01 | 0.00 | 24 | 1015.1 |
| 20260506234505 | 71 | 299 | 4.0 | 8.0 | 0.00 | 0.01 | 0.00 | 24 | 1015.1 |
| 20260506233100 | 70 | 231 | 6.0 | 11.0 | 0.00 | 0.01 | 0.00 | 25 | 1015.2 |
| 20260506231557 | 69 | 75 | 0.0 | 8.0 | 0.00 | 0.01 | 0.00 | 24 | 1015.3 |
| 20260506230057 | 70 | 279 | 6.0 | 12.0 | 0.00 | 0.03 | 0.00 | 25 | 1015.6 |
| 20260506224551 | 69 | 233 | 7.0 | 14.0 | 0.00 | 0.03 | 0.00 | 27 | 1015.9 |
| 20260506223049 | 69 | 212 | 0.0 | 5.0 | 0.00 | 0.03 | 0.00 | 26 | 1016.2 |
| 20260506221543 | 68 | 295 | 5.0 | 8.0 | 0.00 | 0.03 | 0.00 | 26 | 1016.4 |
| 20260506220041 | 68 | 26 | 4.0 | 9.0 | 0.00 | 0.06 | 0.00 | 25 | 1016.7 |
| 20260506214542 | 67 | 150 | 1.0 | 8.0 | 0.00 | 0.06 | 0.00 | 26 | 1017.1 |
| 20260506213035 | 68 | 8 | 0.0 | 6.0 | 0.00 | 0.06 | 0.00 | 28 | 1017.3 |
| 20260506211532 | 67 | 55 | 4.0 | 10.0 | 0.00 | 0.06 | 0.00 | 28 | 1017.3 |
| 20260506210036 | 66 | 66 | 3.0 | 8.0 | 0.00 | 0.06 | 0.00 | 27 | 1017.5 |
| 20260506204546 | 67 | 271 | 6.0 | 10.0 | 0.00 | 0.06 | 0.00 | 26 | 1017.5 |
| 20260506203057 | 66 | 92 | 1.0 | 5.0 | 0.00 | 0.06 | 0.00 | 28 | 1017.6 |
| 20260506201557 | 63 | 347 | 0.0 | 9.0 | 0.00 | 0.06 | 0.00 | 28 | 1017.7 |
| 20260506200107 | 64 | 39 | 6.0 | 10.0 | 0.00 | 0.06 | 0.00 | 28 | 1017.8 |
| 20260506194558 | 63 | 356 | 1.0 | 9.0 | 0.00 | 0.06 | 0.00 | 26 | 1017.9 |
| 20260506193048 | 63 | 62 | 3.0 | 13.0 | 0.00 | 0.06 | 0.00 | 28 | 1018.0 |
| 20260506191543 | 63 | 8 | 4.0 | 8.0 | 0.00 | 0.06 | 0.00 | 29 | 1018.3 |
| 20260506190009 | 62 | 354 | 3.0 | 10.0 | 0.00 | 0.06 | 0.06 | 29 | 1018.3 |
| 20260506184507 | 61 | 333 | 2.0 | 8.0 | 0.00 | 0.06 | 0.06 | 36 | 1018.3 |
| 20260506183005 | 60 | 66 | 2.0 | 7.0 | 0.00 | 0.06 | 0.06 | 37 | 1018.5 |
| 20260506181503 | 59 | 322 | 1.0 | 8.0 | 0.00 | 0.06 | 0.06 | 35 | 1018.4 |
| 20260506180101 | 59 | 338 | 2.0 | 8.0 | 0.00 | 0.06 | 0.06 | 39 | 1018.2 |
| 20260506174603 | 59 | 10 | 4.0 | 9.0 | 0.00 | 0.06 | 0.06 | 41 | 1018.1 |
| 20260506173027 | 57 | 324 | 0.0 | 6.0 | 0.00 | 0.06 | 0.06 | 48 | 1017.9 |
| 20260506171536 | 57 | 314 | 4.0 | 7.0 | 0.00 | 0.06 | 0.06 | 52 | 1017.7 |
| 20260506170022 | 56 | 354 | 2.0 | 6.0 | 0.00 | 0.06 | 0.06 | 57 | 1017.5 |
| 20260506164522 | 55 | 349 | 2.0 | 5.0 | 0.00 | 0.06 | 0.06 | 60 | 1017.5 |
| 20260506163021 | 54 | 47 | 2.0 | 5.0 | 0.00 | 0.06 | 0.06 | 65 | 1017.5 |
| 20260506161523 | 52 | 281 | 1.0 | 4.0 | 0.00 | 0.06 | 0.06 | 68 | 1017.6 |
| 20260506160031 | 51 | 307 | 0.0 | 4.0 | 0.00 | 0.06 | 0.06 | 72 | 1017.5 |
| 20260506154518 | 51 | 323 | 0.0 | 3.0 | 0.00 | 0.06 | 0.06 | 72 | 1017.6 |
| 20260506153016 | 49 | 326 | 0.0 | 2.0 | 0.00 | 0.06 | 0.06 | 73 | 1017.5 |
| 20260506151522 | 48 | 308 | 1.0 | 4.0 | 0.00 | 0.06 | 0.06 | 78 | 1017.3 |
| 20260506150024 | 47 | 266 | 0.0 | 2.0 | 0.00 | 0.06 | 0.06 | 79 | 1017.2 |
| 20260506144512 | 46 | 243 | 0.0 | 3.0 | 0.00 | 0.06 | 0.06 | 80 | 1017.1 |
| 20260506143032 | 45 | 274 | 0.0 | 2.0 | 0.00 | 0.06 | 0.06 | 80 | 1016.9 |
| 20260506141509 | 44 | 66 | 0.0 | 0.0 | 0.00 | 0.06 | 0.06 | 81 | 1016.7 |
| 20260506140005 | 43 | 66 | 0.0 | 0.0 | 0.00 | 0.06 | 0.06 | 81 | 1016.3 |
| 20260506134559 | 42 | 66 | 0.0 | 0.0 | 0.00 | 0.06 | 0.06 | 80 | 1016.2 |
| 20260506133057 | 0 | 0.0 | 0.0 | 0.00 | 0.06 | 0.06 | 1015.6 | ||
| 20260506131555 | 0 | 0.0 | 0.0 | 0.00 | 0.06 | 0.06 | 1015.3 | ||
| 20260506130057 | 0 | 0.0 | 0.0 | 0.00 | 0.06 | 0.06 | 1015.3 | ||
| 20260506124541 | 0 | 0.0 | 0.0 | 0.00 | 0.06 | 0.06 | 1015.2 | ||
| 20260506123037 | 0 | 0.0 | 0.0 | 0.00 | 0.06 | 0.06 | 1015.1 | ||
| 20260506121532 | 0 | 0.0 | 0.0 | 0.00 | 0.06 | 0.06 | 1015.0 | ||
| 20260506120129 | 0 | 0.0 | 0.0 | 0.00 | 0.06 | 0.06 | 1014.9 | ||
| 20260506114555 | 34 | 67 | 0.0 | 1.0 | 0.00 | 0.06 | 0.06 | 88 | 1014.8 |
| 20260506113103 | 35 | 94 | 0.0 | 0.0 | 0.00 | 0.06 | 0.06 | 89 | 1014.6 |
| 20260506111550 | 36 | 94 | 0.0 | 1.0 | 0.00 | 0.06 | 0.06 | 89 | 1014.4 |
| 20260506110052 | 35 | 94 | 0.0 | 0.0 | 0.00 | 0.06 | 0.06 | 88 | 1014.1 |
| 20260506104543 | 36 | 94 | 0.0 | 0.0 | 0.00 | 0.06 | 0.06 | 88 | 1014.1 |
| 20260506103046 | 36 | 127 | 0.0 | 0.0 | 0.00 | 0.06 | 0.06 | 88 | 1013.9 |
| 20260506101549 | 36 | 158 | 0.0 | 0.0 | 0.00 | 0.06 | 0.06 | 87 | 1013.5 |
| 20260506100035 | 37 | 158 | 0.0 | 0.0 | 0.00 | 0.06 | 0.06 | 87 | 1013.2 |
| 20260506094531 | 37 | 159 | 0.0 | 0.0 | 0.00 | 0.06 | 0.06 | 85 | 1013.0 |